This demonstration page uses our WeatherBlox Daily Observations layout. Learn more.

Left ArrowRight Arrow

41.12389, -100.76542

Hourly Observations for May 27, 2017

Temp ( °F °C ) Dew Point ( °F °C ) Humidity (%) Winds ( mph kmh ) Pressure ( in mb ) Visibility ( mi km ) Precip ( " mm )
12:53 am 00:53 Cloudy with Light Rain 62 16.7 55 12.8 78 78 SSE 16 26 29.86 1011 10 16 0.01 0.25
1:53 am 01:53 Cloudy with Light Rain 58 14.4 55 12.8 90 90 WNW 7 11 29.89 1012 10 16 0.06 1.52
2:53 am 02:53 Mostly Cloudy 56 13.3 54 12.2 93 93 NE 10 17 29.85 1011 10 16 0.00 0.03
3:53 am 03:53 Partly Cloudy 54 12.2 52 11.1 93 93 ENE 15 24 29.84 1010 10 16 0.00 0.00
4:53 am 04:53 Clear 53 11.7 51 10.6 93 93 NE 12 19 29.86 1011 10 16 0.00 0.00
5:53 am 05:53 Mostly Cloudy 52 11.1 50 10 93 93 NNE 3 6 29.88 1012 10 16 0.00 0.00
6:22 am 06:22 Partly Cloudy 52 11.1 50 10 93 93 NE 9 15 29.91 1013 10 16 0.00 0.00
6:53 am 06:53 Mostly Sunny 52 11.1 50 10 93 93 ENE 12 19 29.90 1012 10 16 0.00 0.00
7:53 am 07:53 Sunny 54 12.2 51 10.6 90 90 ESE 6 9 29.90 1013 10 16 0.00 0.00
8:53 am 08:53 Sunny 61 16.1 52 11.1 72 72 NE 7 11 29.91 1013 10 16 0.00 0.00
9:53 am 09:53 Sunny 65 18.3 51 10.6 61 61 ENE 8 13 29.91 1013 10 16 0.00 0.00
10:48 am 10:48 Cloudy 61 16 54 12 77 77 NW 8 13 29.94 1014 10 16 0.00 0.00
10:53 am 10:53 Cloudy 61 16.1 53 11.7 75 75 NW 12 19 29.95 1014 10 16 0.00 0.00
11:30 am 11:30 Cloudy 60 15.6 54 12.2 80 80 NNW 14 22 29.94 1014 10 16 0.00 0.03
11:53 am 11:53 Cloudy with Light Rain 59 15 54 12.2 83 83 N 13 20 29.96 1015 10 16 0.00 0.03
12:01 pm 12:01 Cloudy with Light Rain 59 15 54 12.2 83 83 N 9 15 29.94 1014 10 16 0.00 0.03
12:12 pm 12:12 Cloudy 58 14.4 53 11.7 84 84 N 13 20 29.94 1014 10 16 0.00 0.03
12:53 pm 12:53 Cloudy 61 16.1 55 12.8 81 81 NNE 14 22 29.96 1015 10 16 0.00 0.03
1:50 pm 13:50 Cloudy 61 16 55 13 83 83 N 8 13 29.97 1015 10 16 0.00 0.00
1:53 pm 13:53 Cloudy 61 16.1 55 12.8 81 81 N 7 11 29.99 1016 10 16 0.00 0.00
2:53 pm 14:53 Mostly Cloudy 64 17.8 54 12.2 70 70 N 7 11 29.98 1015 10 16 0.00 0.03
3:53 pm 15:53 Mostly Cloudy 64 17.8 52 11.1 65 65 N 8 13 29.97 1015 10 16 0.00 0.00
4:53 pm 16:53 Mostly Cloudy 62 16.7 52 11.1 70 70 N 9 15 29.99 1016 10 16 0.00 0.00
5:53 pm 17:53 Sunny 61 16.1 52 11.1 72 72 N 7 11 30.01 1016 10 16 0.00 0.00
6:53 pm 18:53 Sunny 62 16.7 52 11.1 70 70 NW 3 6 30.01 1016 10 16 0.00 0.00
7:53 pm 19:53 Sunny 62 16.7 53 11.7 73 73 Calm 30.00 1016 10 16 0.00 0.00
8:53 pm 20:53 Sunny 59 15 52 11.1 78 78 W 5 7 30.01 1016 10 16 0.00 0.00
9:53 pm 21:53 Clear 55 12.8 51 10.6 87 87 SSW 3 6 30.02 1017 10 16 0.00 0.00
10:53 pm 22:53 Clear 50 10 47 8.3 89 89 Calm 30.06 1018 10 16 0.00 0.00
11:53 pm 23:53 Clear 46 7.8 45 7.2 96 96 Calm 30.07 1018 10 16 0.00 0.00

Powered by AerisWeather